Flag Weather past 2 weeks in Kortrijk, Belgium

Now
50 °F

Low clouds.


Feels Like: 48 °F
Forecast: 43 / 52 °F
Wind: 6 mph from Southeast

Location: Lille Airport

Current Time: Nov 27, 2014 at 5:33:46 PM

Latest Report: Nov 27, 2014 at 5:00 PM


Visibility: N/A

Pressure: 29.65 "Hg

Humidity: 100%

Dew point: 50 °F

Location of KortrijkLocation

Historic Weather in Kortrijk — Graph

°F

Kortrijk temperature yesterday

Maximum temperature yesterday: 50 °F (at 8:30 PM)
Minimum temperature yesterday: 43 °F (at 1:30 AM)
Average temperature yesterday: 46 °F

Past Weeks' High & Low Weather Summary

 TemperatureHumidityPressure
High57 °F (Nov 23, 1:30 PM)100% (Nov 12, 11:00 PM)30.30 "Hg (Nov 12, 11:00 PM)
Low37 °F (Nov 21, 7:30 AM)67% (Nov 12, 4:00 PM)29.47 "Hg (Nov 16, 4:30 PM)
Average47 °F93%29.89 "Hg
* Reported Nov 12 4:00 PM — Nov 27 4:30 PM, Kortrijk, Weather by CustomWeather, © 2014

Note: Actual official high and low records may vary slightly from our data, if they occured in-between our weather recording intervals... More about our weather records

Advertising

Kortrijk weather history for previous 24 hours

 ConditionsComfort  
Time TempWeatherWind HumidityBarometerVisibility
4:30 PM
Nov 27
50 °FLow clouds.5 mph100%29.65 "HgN/A
4:00 PM50 °FLow clouds.6 mph100%29.62 "Hg5 mi
3:30 PM50 °FLow clouds.7 mph100%29.62 "Hg5 mi
3:00 PM52 °FLow clouds.6 mph94%29.62 "Hg5 mi
2:30 PM50 °FLow clouds.7 mph100%29.65 "Hg4 mi
2:00 PM52 °FLow clouds.6 mph94%29.65 "Hg4 mi
1:30 PM52 °FLow clouds.8 mph94%29.65 "Hg4 mi
1:00 PM50 °FLight rain. Low clouds.6 mph100%29.68 "Hg3 mi
12:30 PM50 °FLight rain. Fog.7 mph100%29.68 "Hg2 mi
12:00 PM50 °FFog.6 mph100%29.68 "Hg2 mi
11:30 AM50 °FFog.6 mph100%29.71 "Hg2 mi
11:00 AM50 °FFog.6 mph94%29.71 "Hg2 mi
10:30 AM50 °FFog.6 mph100%29.71 "Hg1 mi
10:00 AM48 °FFog.3 mph100%29.71 "Hg2 mi
9:30 AM50 °FFog.8 mph100%29.71 "Hg2 mi
9:00 AM50 °FFog.8 mph100%29.71 "Hg2 mi
8:30 AM50 °FFog.6 mph100%29.71 "Hg2 mi
8:00 AM50 °FFog.8 mph100%29.71 "Hg1 mi
7:30 AM50 °FFog.8 mph100%29.71 "Hg1 mi
7:00 AM50 °FFog.8 mph100%29.71 "Hg1 mi
6:30 AM50 °FFog.8 mph100%29.74 "Hg1 mi
6:00 AM50 °FFog.9 mph100%29.74 "Hg0 mi
5:30 AM50 °FFog.7 mph100%29.74 "Hg0 mi
5:00 AM50 °FFog.5 mph100%29.74 "Hg1 mi
4:30 AM50 °FFog.6 mph100%29.74 "Hg1 mi
4:00 AM50 °FFog.6 mph100%29.74 "Hg1 mi
3:30 AM50 °FFog.7 mph100%29.74 "Hg0 mi
3:00 AM50 °FFog.7 mph100%29.77 "Hg1 mi
2:30 AM50 °FFog.6 mph100%29.77 "Hg1 mi
2:00 AM50 °FDense fog.6 mph100%29.77 "Hg1 mi
1:30 AM50 °FFog.7 mph100%29.77 "Hg1 mi
12:30 AM50 °FFog.6 mph100%29.80 "Hg0 mi
12:00 AM50 °FFog.6 mph100%29.80 "Hg0 mi
11:30 PM
Nov 26
50 °FFog.6 mph100%29.80 "Hg1 mi
11:00 PM50 °FFog.5 mph100%29.80 "Hg1 mi
10:30 PM50 °FFog.5 mph100%29.80 "Hg1 mi
10:00 PM50 °FFog.5 mph100%29.80 "Hg1 mi
9:30 PM50 °FFog.5 mph100%29.80 "Hg1 mi
8:30 PM50 °FFog.6 mph100%29.83 "Hg1 mi
8:00 PM48 °FFog.5 mph100%29.83 "Hg1 mi
7:30 PM48 °FFog.6 mph100%29.83 "Hg1 mi
7:00 PM48 °FFog.7 mph100%29.83 "Hg1 mi
6:30 PM48 °FFog.6 mph100%29.83 "Hg1 mi
6:00 PM48 °FFog.5 mph100%29.83 "Hg1 mi
5:30 PM48 °FFog.5 mph100%29.83 "Hg1 mi
5:00 PM48 °FFog.5 mph100%29.83 "Hg1 mi
Weather by CustomWeather, © 2014

See weather overviewHow to use our weather pages